This is the latest recevied weather packets stored in our database for station/object DB0SWS-13. If no packets are shown the sender has not sent any weather packets the latest 10 day(s).
| Time | Temp. | Humidity | Pressure | Rain* | Wind** | Luminosity | Snow |
|---|---|---|---|---|---|---|---|
| 1787558810 | 20° C | 44% | 1023.1 hPa | - | - | - | - |
| 1787557910 | 18.89° C | 44% | 1023 hPa | - | - | - | - |
| 1787557010 | 18.33° C | 47% | 1023.2 hPa | - | - | - | - |
| 1787556110 | 18.33° C | 46% | 1023.1 hPa | - | - | - | - |
| 1787555210 | 17.78° C | 48% | 1023.2 hPa | - | - | - | - |
| 1787554310 | 16.67° C | 48% | 1023.3 hPa | - | - | - | - |
| 1787553410 | 16.67° C | 49% | 1023.2 hPa | - | - | - | - |
| 1787552509 | 16.11° C | 50% | 1023.1 hPa | - | - | - | - |
| 1787551609 | 15.56° C | 50% | 1023 hPa | - | - | - | - |
| 1787550709 | 16.11° C | 50% | 1023.2 hPa | - | - | - | - |
| 1787549809 | 15.56° C | 50% | 1023.4 hPa | - | - | - | - |
| 1787548909 | 15.56° C | 50% | 1023.2 hPa | - | - | - | - |
| 1787548011 | 15° C | 50% | 1023.3 hPa | - | - | - | - |
| 1787547111 | 15° C | 50% | 1023 hPa | - | - | - | - |
| 1787546211 | 15.56° C | 49% | 1023 hPa | - | - | - | - |
| 1787545311 | 15.56° C | 49% | 1023.1 hPa | - | - | - | - |
| 1787544411 | 15.56° C | 49% | 1023.1 hPa | - | - | - | - |
| 1787543511 | 15.56° C | 49% | 1023.4 hPa | - | - | - | - |
| 1787542611 | 15.56° C | 49% | 1023.5 hPa | - | - | - | - |
| 1787541711 | 15.56° C | 49% | 1023.5 hPa | - | - | - | - |
| 1787540811 | 15.56° C | 48% | 1023.8 hPa | - | - | - | - |
| 1787539911 | 15.56° C | 48% | 1023.9 hPa | - | - | - | - |
| 1787539011 | 15.56° C | 48% | 1024 hPa | - | - | - | - |
| 1787538110 | 15.56° C | 48% | 1023.9 hPa | - | - | - | - |
| 1787537210 | 15.56° C | 48% | 1023.9 hPa | - | - | - | - |
* Rain since midnight (hover to see other rain measurements)
** Current wind speed in m/s (hover to see current wind gust speed)